[[{"header":{"parameterUnit":"m.s-1","parameterCategory":1,"la1":30.2991,"la2":30.254,"lo1":-89.0895,"lo2":-89.0444,"dy":0.0017,"dx":0.0017,"nx":28,"ny":28,"refTime":"2025-01-16T03:00:00:Z","depth":0,"parameterNumber":2,"parameterNumberName":"U-component_of_WINDS"},"data":[0,0,0,0,0,0,0,0,0,0,0,0,0,0,0,0,0,0,0,0,0,0,0,0,0,0,0,0,0,0,0,0,0,0,0,0,0,0,0,0,0,0,0,0,0,0,0,0,0,0,0,0,0,0,0,0,0,0,1.5019,1.5019,0,1.5069,1.5069,1.507,1.505,1.5048,1.5047,1.5046,1.5099,1.5102,1.5104,0,0,0,0,0,0,0,0,0,0,0,0,0,1.4907,1.4909,1.5018,1.5019,1.502,1.5069,1.5069,1.507,1.505,1.5048,1.5047,1.5045,1.5099,1.5102,1.5105,0,0,0,0,0,0,0,0,0,0,0,0,0,1.4956,1.491,1.5018,1.5015,1.5016,1.5068,1.5069,1.507,1.505,1.5048,1.5046,1.5045,1.5098,1.5101,1.5105,1.5164,0,0,1.5117,1.5118,0,0,0,0,0,0,0,0,1.4953,1.496,1.5015,1.5016,1.5016,1.5051,1.5049,1.5102,1.505,1.5037,1.5046,1.5044,1.5085,1.509,1.5103,1.5167,1.5169,1.5117,1.5119,1.5121,1.5122,0,0,0,0,0,0,0,1.495,1.4958,1.5038,1.5016,1.5017,1.5012,1.5017,1.5059,1.507,1.5038,1.5037,1.5043,1.5085,1.5099,1.5104,1.517,1.5117,1.512,1.5123,1.5124,1.5285,1.5286,0,0,0,0,0,0,1.4946,1.4955,1.5037,1.504,1.498,1.5016,1.5021,1.5042,1.507,1.5072,1.5044,1.5042,1.5094,1.51,1.5106,1.5177,1.5121,1.5124,1.5127,1.5283,1.5285,1.5287,0,0,0,0,0,0,1.4944,1.4954,1.5035,1.4997,1.5007,1.5019,1.5043,1.5044,1.5058,1.5075,1.5077,1.5057,1.5093,1.5101,1.515,1.5178,1.5126,1.513,1.528,1.5283,1.5286,1.5319,0,0,0,0,0,0,1.4941,1.4953,1.4975,1.4998,1.5009,1.5077,1.5044,1.5046,1.5064,1.5062,1.5087,1.509,1.5092,1.5144,1.5153,1.5183,1.5132,1.5278,1.5282,1.5285,1.5316,1.5323,1.533,0,0,0,0,0,1.4937,1.4983,1.4976,1.4986,1.5037,1.5079,1.5086,1.5087,1.5067,1.509,1.51,1.5089,1.5174,1.5149,1.516,1.5191,1.5276,1.5281,1.5285,1.5313,1.5322,1.5329,0,0,0,0,0,0,1.4964,1.4986,1.4979,1.5033,1.5054,1.5075,1.5104,1.5096,1.5124,1.512,1.512,1.5126,1.5177,1.5189,1.5161,1.5249,1.5222,1.5229,1.524,1.5248,1.5255,1.5251,1.5136,0,0,0,0,0,1.4976,1.5008,1.5025,1.5072,1.5083,1.5092,1.511,1.5109,1.5131,1.514,1.5154,1.5176,1.5208,1.5229,1.5259,1.5318,1.5323,1.5344,1.5351,1.5356,1.5362,1.5394,1.5403,1.5302,1.5302,1.5302,0,0,1.5002,1.5018,1.5038,1.5078,1.5094,1.5127,1.5099,1.5136,1.516,1.5146,1.5192,1.5204,1.5229,1.5283,1.5307,1.5294,1.5391,1.5362,1.5366,1.5369,1.5399,1.5409,1.5418,1.5305,1.5304,1.5304,0,0,1.5066,1.5081,1.5121,1.5138,1.5162,1.5168,1.5178,1.52,1.5207,1.5254,1.5243,1.5273,1.5328,1.5346,1.5362,1.5433,1.5424,1.5443,1.5479,1.551,1.5518,1.5525,1.555,1.5559,1.5449,1.5449,1.5449,0,1.5095,1.5144,1.5143,1.518,1.5198,1.5186,1.5227,1.5243,1.5277,1.529,1.5274,1.5343,1.5359,1.5417,1.5434,1.5448,1.5459,1.544,1.5517,1.5524,1.553,1.5554,1.5564,1.5451,1.5451,1.5451,1.545,0,1.5178,1.5213,1.5242,1.5274,1.5296,1.5335,1.534,1.5362,1.536,1.5367,1.5415,1.5434,1.5467,1.5481,1.5479,1.5539,1.553,1.5516,1.5488,1.5542,1.5565,1.5574,1.5454,1.5453,1.5453,1.5452,0,0,1.5261,1.5291,1.5302,1.5317,1.5343,1.5369,1.5408,1.544,1.5459,1.5483,1.5515,1.5562,1.5548,1.5567,1.5567,1.5594,1.5649,1.5576,1.5577,1.5589,1.5716,1.5727,1.5737,1.5643,1.5645,1.5646,1.5714,0,1.5326,1.5393,1.5394,1.5456,1.5487,1.5476,1.551,1.553,1.5538,1.5566,1.5575,1.5608,1.5588,1.5599,1.5626,1.5637,1.5674,1.5632,1.5674,1.5675,1.5667,1.5749,1.576,1.5823,1.5723,1.5724,1.5725,0,1.5412,1.5437,1.5502,1.5523,1.5537,1.5567,1.5596,1.5624,1.5646,1.565,1.5671,1.5667,1.5707,1.5678,1.5733,1.5704,1.5721,1.5729,1.5732,1.5736,1.5703,1.5755,1.5844,1.5853,1.5739,1.5738,1.5737,0,1.5465,1.5516,1.5561,1.5573,1.5599,1.5621,1.5633,1.5654,1.5673,1.5699,1.5712,1.5743,1.5759,1.5784,1.5788,1.5767,1.5843,1.5815,1.5848,1.5848,1.5864,1.5863,1.5957,1.5876,1.5876,1.5876,1.5875,0,1.5538,1.5578,1.5585,1.5613,1.5657,1.5658,1.5702,1.5713,1.5731,1.5761,1.5754,1.5782,1.5787,1.5816,1.582,1.5865,1.5873,1.5877,1.5878,1.5878,1.5877,1.5889,1.5884,1.5878,1.5878,1.5877,1.5877,0,1.5604,1.5611,1.5659,1.568,1.5686,1.5718,1.5736,1.5763,1.577,1.5808,1.5817,1.5829,1.5863,1.587,1.5911,1.5914,1.5967,1.5964,1.5959,1.5959,1.5991,1.5988,1.6095,1.6109,1.602,1.6021,1.6021,0,1.565,1.5681,1.5705,1.5724,1.5737,1.5768,1.5787,1.579,1.581,1.5838,1.5862,1.5896,1.5922,1.5978,1.5991,1.6022,1.6019,1.6054,1.6023,1.6022,1.6019,1.6017,1.602,1.606,1.6061,1.6062,1.6063,0,1.5731,1.5733,1.5761,1.579,1.5813,1.5837,1.5859,1.5875,1.588,1.5904,1.5939,1.596,1.6001,1.6035,1.6066,1.6079,1.6072,1.6072,1.6081,1.6081,1.6077,1.608,1.5975,1.607,1.6069,1.6068,1.6068,1.6068,1.5789,1.5815,1.5836,1.5867,1.5884,1.5905,1.5931,1.5941,1.597,1.6004,1.6004,1.6042,1.6064,1.6105,1.612,1.615,1.6139,1.6152,1.6156,1.6159,1.6162,1.6073,1.6156,1.6156,1.6156,1.6155,1.6155,0,1.5869,1.5882,1.5911,1.5941,1.5966,1.5957,1.5981,1.6002,1.6036,1.6057,1.6083,1.6123,1.6156,1.6171,1.6203,1.6224,1.6222,1.6232,1.6231,1.6234,1.617,1.6159,1.6234,1.6234,1.6234,1.6234,1.6234,1.6234,1.5913,1.5957,1.5961,1.6014,1.6027,1.6063,1.6078,1.6097,1.6114,1.6158,1.6185,1.6194,1.6213,1.6247,1.6276,1.628,1.6292,1.6304,1.6306,1.6246,1.6238,1.6231,1.622,1.6307,1.6307,1.6367,1.6368,1.6368]},{"header":{"parameterUnit":"m.s-1","parameterCategory":1,"la1":30.2991,"la2":30.254,"lo1":-89.0895,"lo2":-89.0444,"dy":0.0017,"dx":0.0017,"nx":28,"ny":28,"refTime":"2025-01-16T03:00:00:Z","depth":0,"parameterNumber":3,"parameterNumberName":"V-component_of_WINDS"},"data":[0,0,0,0,0,0,0,0,0,0,0,0,0,0,0,0,0,0,0,0,0,0,0,0,0,0,0,0,0,0,0,0,0,0,0,0,0,0,0,0,0,0,0,0,0,0,0,0,0,0,0,0,0,0,0,0,0,0,0.6319,0.6319,0,0.6333,0.6333,0.6333,0.6298,0.6297,0.6296,0.6295,0.631,0.6312,0.6313,0,0,0,0,0,0,0,0,0,0,0,0,0,0.6261,0.6262,0.6319,0.6319,0.6319,0.6333,0.6333,0.6334,0.6298,0.6297,0.6296,0.6294,0.631,0.6312,0.6313,0,0,0,0,0,0,0,0,0,0,0,0,0,0.6282,0.6262,0.6319,0.6303,0.6302,0.6333,0.6333,0.6334,0.6299,0.6297,0.6295,0.6294,0.6309,0.6311,0.6314,0.6361,0,0,0.632,0.6321,0,0,0,0,0,0,0,0,0.6281,0.6284,0.6305,0.6304,0.6303,0.6312,0.6318,0.6343,0.6299,0.63,0.6295,0.6293,0.6312,0.6314,0.6321,0.6361,0.6362,0.632,0.6322,0.6323,0.6323,0,0,0,0,0,0,0,0.6279,0.6283,0.6325,0.6306,0.6304,0.6295,0.6297,0.6323,0.6315,0.63,0.6297,0.6299,0.6311,0.6319,0.6321,0.6362,0.632,0.6322,0.6324,0.6324,0.644,0.6442,0,0,0,0,0,0,0.628,0.6282,0.6324,0.6325,0.6287,0.6298,0.6299,0.6311,0.6315,0.6314,0.6301,0.6298,0.6316,0.6318,0.6321,0.6375,0.6323,0.6325,0.6326,0.6438,0.644,0.6442,0,0,0,0,0,0,0.6278,0.6284,0.6324,0.6303,0.6307,0.6301,0.6314,0.6312,0.6319,0.6316,0.6314,0.6309,0.6314,0.6318,0.635,0.6375,0.6326,0.6328,0.6436,0.6439,0.6441,0.6484,0,0,0,0,0,0,0.6277,0.6284,0.6302,0.6303,0.6308,0.6353,0.6316,0.6314,0.6323,0.6319,0.6324,0.6323,0.6313,0.6347,0.6353,0.6377,0.6329,0.6434,0.6437,0.6441,0.6481,0.6488,0.6494,0,0,0,0,0,0.6275,0.6314,0.6303,0.6308,0.6331,0.6355,0.6357,0.6346,0.6325,0.6343,0.634,0.6323,0.6372,0.6351,0.6357,0.6382,0.6432,0.6437,0.644,0.6478,0.6487,0.6494,0,0,0,0,0,0,0.6316,0.6314,0.6302,0.6342,0.6349,0.6349,0.6371,0.6356,0.6369,0.6365,0.635,0.6351,0.6386,0.6387,0.6365,0.6427,0.6398,0.6404,0.6425,0.6433,0.644,0.6439,0.6331,0,0,0,0,0,0.633,0.6349,0.6346,0.6382,0.6386,0.6378,0.6388,0.6378,0.6384,0.6387,0.6387,0.6394,0.6411,0.6422,0.6438,0.6481,0.648,0.6501,0.6508,0.6513,0.6518,0.6539,0.6548,0.6455,0.6455,0.6455,0,0,0.6359,0.636,0.6373,0.639,0.6394,0.6414,0.6381,0.6404,0.6418,0.6391,0.6421,0.6421,0.6428,0.6465,0.6482,0.6467,0.6543,0.6518,0.6523,0.6525,0.6544,0.6553,0.6561,0.6458,0.6458,0.6457,0,0,0.6421,0.6424,0.6453,0.6458,0.6463,0.6457,0.6464,0.6466,0.6465,0.6495,0.6474,0.6491,0.6521,0.6526,0.6532,0.6594,0.6578,0.6599,0.6636,0.6656,0.6664,0.667,0.6691,0.6699,0.6604,0.6604,0.6604,0,0.6456,0.6485,0.6471,0.6494,0.6502,0.6477,0.6506,0.6511,0.6522,0.6528,0.6512,0.6547,0.655,0.6587,0.6602,0.6609,0.6616,0.6599,0.6664,0.667,0.6676,0.6696,0.6704,0.6607,0.6607,0.6606,0.6606,0,0.6527,0.6548,0.6571,0.658,0.6591,0.6617,0.6607,0.6619,0.6607,0.6603,0.6633,0.6635,0.665,0.6658,0.6648,0.6694,0.6684,0.6666,0.6637,0.6687,0.6706,0.6713,0.661,0.661,0.6609,0.6608,0,0,0.6617,0.6617,0.6626,0.6629,0.6633,0.6648,0.6673,0.6686,0.6696,0.6704,0.6724,0.6749,0.6731,0.6739,0.6729,0.6747,0.6794,0.6726,0.6726,0.6738,0.6843,0.6857,0.6866,0.6783,0.6785,0.6786,0.6843,0,0.6678,0.672,0.6707,0.6749,0.6767,0.6742,0.6763,0.6768,0.6764,0.6778,0.6774,0.6791,0.6767,0.6771,0.6788,0.6785,0.6815,0.6781,0.6801,0.6802,0.68,0.6876,0.689,0.6944,0.685,0.6851,0.6852,0,0.6755,0.6764,0.6808,0.6806,0.6813,0.6833,0.6843,0.6857,0.6861,0.6857,0.6864,0.6849,0.6873,0.6844,0.6876,0.6852,0.686,0.6859,0.6861,0.6862,0.683,0.6878,0.6961,0.6968,0.6863,0.6862,0.6862,0,0.6815,0.6839,0.6867,0.6871,0.687,0.6884,0.6885,0.6887,0.6895,0.6904,0.6909,0.6921,0.6927,0.6937,0.6926,0.6905,0.6959,0.6929,0.6955,0.6956,0.6968,0.6967,0.7052,0.6973,0.6973,0.6973,0.6973,0,0.6884,0.6911,0.6894,0.6911,0.6941,0.6925,0.6955,0.6952,0.6954,0.6971,0.695,0.6966,0.6951,0.6965,0.6956,0.6983,0.6987,0.6984,0.6981,0.6985,0.6985,0.699,0.6985,0.6975,0.6975,0.6974,0.6974,0,0.6956,0.6946,0.6975,0.6971,0.6971,0.6993,0.6989,0.7005,0.6999,0.702,0.7024,0.7014,0.703,0.702,0.7036,0.703,0.7065,0.7057,0.7063,0.7061,0.7088,0.7085,0.7178,0.7189,0.7104,0.7105,0.7106,0,0.7001,0.7021,0.7019,0.7028,0.7029,0.7044,0.7052,0.7036,0.7045,0.705,0.7065,0.7079,0.7089,0.7115,0.7109,0.7121,0.7113,0.7145,0.7115,0.7118,0.7113,0.7111,0.7113,0.7151,0.7152,0.7153,0.7153,0,0.7081,0.7074,0.7085,0.7095,0.7104,0.7111,0.7116,0.7125,0.7109,0.712,0.7135,0.7142,0.7158,0.7171,0.7181,0.7181,0.7165,0.7163,0.7169,0.7174,0.7176,0.7174,0.7079,0.7161,0.716,0.716,0.7159,0.7159,0.714,0.7156,0.7156,0.7169,0.7171,0.7176,0.719,0.7184,0.7197,0.7207,0.7197,0.7215,0.7217,0.7227,0.723,0.7243,0.723,0.724,0.7242,0.7245,0.7248,0.7174,0.7245,0.7245,0.7244,0.7244,0.7244,0,0.7218,0.7216,0.7228,0.7235,0.7245,0.7227,0.7232,0.7241,0.7257,0.7259,0.7269,0.7285,0.7298,0.7293,0.7304,0.7315,0.7308,0.7319,0.7317,0.7317,0.726,0.7252,0.7324,0.7324,0.7324,0.7324,0.7324,0.7324,0.726,0.7285,0.7278,0.7304,0.7302,0.7318,0.7322,0.7326,0.7328,0.7347,0.7356,0.7352,0.7352,0.7362,0.7372,0.737,0.7375,0.7388,0.7384,0.733,0.7322,0.7314,0.7307,0.739,0.739,0.744,0.7441,0.7441]}]]